Wind_Speed
10 9 9 8 9 9 9 9 8 8 7 7 6 6 6 6 6 5 4 4 3 3 3 3 3 3 4 3 2 2 2 3 3 3 3 4 4 4 5 4 4 4 5
10 9 9 9 9 9 9 8 8 7 7 6 6 6 6 6 6 5 5 4 3 3 2 2 3 3 3 2 2 2 2 3 3 3 3 4 4 4 4 4 4 5 5
10 9 9 9 9 10 9 8 8 7 6 6 6 5 5 5 5 5 5 4 3 2 1 2 1 1 1 1 2 2 2 2 3 3 3 4 4 4 4 4 4 4 4
9 9 9 10 9 9 9 8 8 7 7 6 5 4 4 4 4 4 4 4 3 2 1 0 2 1 1 1 1 2 2 2 2 3 4 5 5 4 4 4 4 4 4
9 9 9 10 10 9 9 8 8 7 7 6 5 5 4 4 3 3 3 3 3 3 2 1 1 1 2 1 2 2 2 3 3 3 4 5 5 4 4 4 4 5 4
10 9 10 10 10 9 9 9 8 7 6 6 5 5 4 4 3 3 3 3 3 2 2 1 1 1 2 2 2 3 3 3 3 3 4 5 6 5 4 4 4 4 4
10 10 10 11 10 10 10 9 8 7 6 6 5 4 4 3 2 2 2 2 2 2 1 1 1 1 2 2 2 3 3 3 3 4 4 4 4 4 4 4 4 4 4
10 10 10 10 10 10 10 9 8 7 7 6 5 4 3 2 2 2 1 1 1 1 1 1 2 1 2 2 2 2 2 3 3 3 3 4 3 3 4 4 5 5 5
10 10 10 10 9 9 9 8 7 6 6 4 4 3 2 2 2 1 1 1 1 2 2 2 2 1 1 2 2 2 3 3 4 4 4 4 4 4 4 5 5 5 5
10 10 9 9 9 9 8 7 7 6 5 4 3 2 2 2 2 2 1 2 2 2 3 2 2 1 2 2 3 3 4 3 3 4 4 4 4 4 4 5 5 5 6
10 9 9 9 10 9 8 7 6 6 6 5 3 3 3 3 3 3 2 2 2 2 3 3 3 2 1 2 3 4 4 4 4 4 5 5 5 5 5 5 5 5 6
11 9 9 9 9 9 8 8 7 7 6 6 5 4 3 3 3 3 3 3 2 2 2 2 2 1 2 2 3 4 5 5 4 4 5 6 6 6 6 6 6 6 6
10 10 9 8 8 8 8 7 7 7 7 6 6 5 4 4 4 4 4 4 3 2 2 2 2 2 3 3 4 4 5 5 5 5 5 6 6 7 7 7 7 7 7
10 9 9 8 8 8 7 7 7 7 7 6 5 5 5 4 4 4 4 4 4 3 3 2 3 3 3 3 4 4 5 5 6 6 6 7 7 8 8 8 8 8 8
10 9 8 8 8 8 7 7 6 7 7 6 6 5 5 4 4 5 4 4 4 3 3 4 4 4 3 3 4 5 6 6 6 7 7 7 8 9 10 10 9 9 9
9 9 8 7 7 7 7 7 6 7 7 7 6 5 5 5 5 5 4 4 3 3 4 4 4 4 4 5 5 6 6 7 7 7 8 8 9 10 10 10 10 10 10
9 8 7 7 6 6 6 6 6 6 7 7 7 6 6 5 5 5 5 4 4 4 4 4 5 5 5 5 6 7 8 8 8 7 7 8 9 9 9 10 11 11 11
8 7 7 7 6 6 6 6 6 6 6 7 7 6 6 6 6 6 5 5 5 5 5 5 5 6 7 7 7 8 8 9 9 9 9 9 9 10 10 11 11 12 12
8 7 7 6 6 6 6 6 6 6 6 7 7 7 7 7 7 7 6 6 6 6 6 6 6 7 7 8 8 9 9 9 10 10 11 11 10 11 11 12 12 12 12
8 8 7 7 7 6 6 6 6 7 7 8 7 8 8 8 8 8 8 7 7 7 7 7 8 8 8 8 8 9 9 10 10 10 11 11 12 11 12 12 13 12 13
8 8 7 7 7 7 7 7 7 7 7 7 7 8 8 8 8 8 8 8 7 8 8 8 9 9 9 10 10 10 10 10 11 11 11 11 12 12 12 13 13 13 13
8 7 7 7 7 7 7 7 7 7 8 7 8 8 8 9 9 8 8 9 8 8 9 9 10 10 10 11 11 11 11 12 12 12 12 12 13 13 13 13 14 14 14
8 7 7 7 7 7 7 7 7 7 8 8 9 9 9 9 9 9 9 9 8 9 9 10 11 11 11 12 12 13 13 13 12 12 13 13 14 14 14 13 13 14 15
8 8 7 7 7 7 8 8 8 8 8 9 10 9 10 10 10 10 10 10 10 10 10 11 11 11 12 12 13 13 12 12 12 13 13 13 14 14 14 15 15 15 15
8 8 8 8 8 8 8 9 9 9 10 10 11 11 11 11 11 12 12 12 12 12 12 13 12 12 12 12 12 13 13 13 13 13 13 14 14 14 15 16 16 17 17
9 9 9 9 9 9 9 10 10 11 11 11 12 12 13 13 13 13 13 13 13 13 13 14 13 13 13 13 13 13 13 14 14 14 14 14 15 16 17 17 18 18 18
Wind_Direction
66 69 72 72 74 79 90 95 94 99 100 101 100 93 92 92 89 84 83 89 96 98 98 98 128 110 112 115 123 142 155 157 161 173 180 187 194 188 194 198 193 197 201
66 66 69 73 76 79 87 91 92 94 98 99 99 94 89 88 85 79 76 83 95 92 107 136 133 121 133 125 137 153 149 163 171 180 186 190 192 189 191 191 191 198 193
68 67 66 72 76 78 81 90 91 93 95 96 99 100 93 86 78 67 65 70 75 74 102 167 169 144 153 150 166 175 168 177 184 188 195 200 204 203 201 197 188 190 187
68 67 67 71 72 73 77 87 89 93 94 94 94 98 96 92 85 71 60 63 62 59 43 137 200 187 212 191 200 216 220 227 211 207 213 211 211 213 207 201 191 186 186
67 68 65 71 71 71 74 83 87 90 92 93 91 92 89 84 76 67 61 60 61 47 26 35 218 229 235 231 230 234 240 233 228 218 216 214 216 218 218 210 201 194 194
67 66 65 70 69 70 73 78 84 88 89 88 88 87 83 79 67 55 60 56 59 40 22 351 293 258 237 226 235 241 239 236 236 224 219 215 219 228 228 223 220 216 207
69 67 62 67 70 70 73 75 79 83 82 80 82 81 76 69 58 46 50 59 53 40 16 326 309 277 257 241 230 223 225 231 241 231 214 214 219 222 229 227 229 228 225
66 65 63 64 69 72 74 74 76 74 72 71 75 80 78 67 49 13 33 59 50 26 353 329 331 306 261 249 241 231 235 238 237 235 228 223 224 230 227 231 235 238 227
63 63 61 60 66 68 67 66 69 67 67 68 66 68 75 59 42 18 3 322 321 344 349 318 302 296 262 252 233 238 238 251 251 243 234 229 234 234 227 234 239 237 230
61 59 59 60 65 65 64 62 62 69 63 62 59 56 69 60 48 23 2 347 330 335 337 319 295 279 259 238 229 242 256 251 246 245 243 240 239 239 241 241 243 242 239
57 58 59 65 64 63 61 60 53 56 47 45 48 49 43 44 22 10 360 353 345 337 335 326 303 283 257 248 243 256 260 254 253 251 246 246 245 241 240 244 253 253 248
54 57 59 64 62 58 57 57 52 43 34 34 36 31 22 15 2 353 355 357 350 325 330 317 307 287 264 257 260 266 255 250 250 251 246 244 244 246 245 246 253 257 254
54 58 57 55 51 49 49 49 47 41 40 37 32 25 17 4 351 342 341 343 330 315 301 305 305 293 279 263 263 266 252 249 251 254 253 243 247 253 248 248 254 259 258
52 55 53 53 52 49 45 43 42 38 37 31 25 17 9 351 340 337 331 326 316 312 304 309 307 298 287 269 260 257 254 259 262 259 255 251 252 252 251 251 254 259 259
49 53 51 51 51 48 42 38 38 32 24 21 14 10 3 358 345 335 334 341 327 316 302 301 296 287 284 277 270 265 265 265 264 267 262 257 257 255 257 256 256 261 258
46 45 48 45 42 40 34 29 31 27 20 15 14 17 11 12 0 347 355 351 334 326 316 306 298 295 291 289 278 275 274 271 273 266 263 261 260 259 256 255 258 260 260
45 42 42 38 32 26 23 20 20 16 10 10 10 7 360 3 360 358 354 347 338 328 319 310 303 304 300 294 285 283 281 274 273 272 266 264 261 262 262 259 260 259 259
36 35 30 26 20 14 12 11 8 7 4 2 3 359 352 346 345 343 337 326 317 311 305 302 299 299 296 293 290 285 281 278 272 272 272 272 270 268 266 266 262 262 262
27 24 17 13 13 8 4 360 359 1 359 356 355 350 345 340 336 334 327 315 307 302 297 294 296 296 297 295 291 286 283 282 274 273 274 272 271 270 270 270 267 265 262
15 14 10 6 4 360 355 352 348 352 352 350 348 344 338 332 330 331 328 319 310 303 298 292 293 295 295 294 292 288 284 282 278 276 277 275 270 270 272 273 270 266 263
4 5 4 359 357 354 350 347 341 338 338 335 336 337 338 335 330 329 326 319 310 303 297 292 291 292 292 291 288 286 282 279 276 275 276 276 276 274 275 272 271 269 264
360 357 354 351 346 346 344 344 341 331 327 326 327 330 331 331 328 323 322 317 309 302 294 288 287 288 288 288 287 285 283 281 277 276 276 276 276 277 275 272 268 267 266
347 345 345 345 341 338 338 338 336 332 326 323 327 329 329 329 328 323 318 316 309 300 293 290 289 289 287 287 286 285 284 283 280 279 280 277 276 274 273 272 270 271 268
338 336 335 336 334 332 333 331 328 327 327 324 323 321 322 323 323 320 314 309 304 299 296 294 293 291 289 287 285 284 283 283 282 280 279 278 276 273 271 271 274 273 273
330 331 330 330 325 325 325 324 324 322 318 318 318 315 315 314 313 312 309 303 299 295 294 292 293 290 288 287 286 282 280 281 282 284 279 278 276 275 274 273 273 271 270
324 325 326 326 322 322 321 320 318 319 315 314 314 312 310 308 307 307 306 303 299 296 294 293 293 292 288 286 286 283 281 280 283 284 283 280 278 276 274 274 274 271 272
Height
5866 5865 5864 5864 5864 5864 5864 5864 5865 5866 5867 5867 5868 5868 5869 5870 5871 5871 5872 5872 5873 5873 5873 5873 5874 5875 5875 5876 5876 5876 5877 5877 5878 5878 5879 5880 5881 5881 5882 5883 5883 5884 5885
5867 5867 5866 5866 5865 5865 5865 5866 5867 5867 5868 5868 5869 5870 5870 5871 5871 5872 5872 5873 5873 5874 5874 5873 5874 5875 5875 5876 5876 5877 5877 5877 5878 5879 5879 5880 5881 5881 5882 5883 5883 5884 5885
5869 5869 5868 5868 5867 5866 5867 5867 5868 5868 5869 5869 5870 5871 5871 5872 5872 5873 5873 5873 5874 5874 5874 5874 5874 5875 5876 5876 5877 5877 5877 5877 5878 5879 5879 5880 5881 5881 5882 5883 5884 5884 5885
5871 5870 5870 5869 5869 5868 5868 5868 5869 5869 5870 5870 5871 5871 5872 5872 5873 5873 5874 5874 5874 5874 5875 5875 5875 5875 5876 5876 5877 5877 5878 5878 5878 5879 5879 5880 5881 5881 5882 5883 5883 5884 5885
5872 5872 5871 5871 5870 5870 5870 5870 5870 5870 5871 5871 5872 5872 5872 5873 5873 5874 5874 5874 5874 5875 5875 5875 5875 5876 5876 5876 5877 5877 5878 5878 5878 5879 5879 5880 5880 5881 5882 5883 5883 5884 5885
5874 5873 5873 5872 5872 5871 5871 5871 5871 5871 5872 5872 5872 5873 5873 5873 5874 5874 5874 5875 5875 5875 5875 5875 5875 5876 5876 5876 5876 5877 5877 5878 5878 5879 5879 5880 5880 5881 5882 5882 5883 5884 5884
5875 5875 5874 5873 5873 5872 5872 5872 5872 5872 5873 5873 5873 5873 5874 5874 5874 5874 5874 5874 5875 5875 5875 5875 5875 5875 5875 5876 5876 5876 5877 5878 5878 5878 5879 5880 5880 5881 5882 5882 5883 5883 5884
5876 5876 5875 5875 5874 5874 5873 5874 5874 5874 5874 5874 5874 5874 5874 5874 5874 5874 5874 5874 5874 5875 5875 5875 5875 5875 5875 5875 5876 5876 5876 5877 5877 5878 5878 5879 5880 5880 5881 5882 5882 5883 5883
5878 5877 5877 5876 5875 5875 5875 5875 5875 5875 5875 5874 5874 5874 5874 5874 5874 5874 5874 5874 5874 5874 5874 5875 5874 5874 5874 5875 5875 5875 5875 5876 5877 5877 5878 5878 5879 5880 5880 5881 5881 5882 5882
5879 5878 5878 5877 5877 5876 5876 5876 5875 5875 5875 5874 5874 5874 5874 5874 5874 5874 5874 5874 5874 5874 5874 5874 5874 5874 5874 5874 5874 5875 5875 5875 5876 5877 5877 5878 5878 5879 5879 5880 5880 5881 5881
5880 5880 5879 5878 5878 5877 5877 5876 5876 5876 5875 5874 5874 5874 5875 5875 5875 5874 5874 5874 5873 5873 5873 5873 5873 5873 5873 5874 5874 5874 5875 5875 5875 5876 5876 5877 5877 5878 5878 5879 5879 5880 5880
5881 5881 5880 5879 5879 5878 5878 5877 5877 5876 5876 5876 5875 5875 5875 5875 5874 5874 5874 5873 5873 5873 5873 5873 5873 5873 5873 5873 5873 5873 5874 5874 5874 5875 5875 5876 5876 5877 5877 5878 5878 5879 5879
5883 5882 5881 5880 5880 5879 5879 5878 5878 5877 5876 5876 5876 5875 5875 5874 5874 5874 5873 5873 5873 5873 5873 5873 5872 5872 5872 5872 5872 5872 5872 5873 5873 5873 5874 5874 5875 5875 5876 5876 5877 5877 5877
5883 5883 5882 5881 5881 5880 5880 5879 5878 5878 5877 5876 5876 5875 5874 5874 5873 5873 5873 5872 5872 5872 5872 5872 5872 5871 5871 5871 5872 5871 5871 5871 5872 5872 5872 5873 5873 5873 5874 5874 5875 5876 5876
5884 5884 5883 5883 5882 5881 5880 5880 5879 5878 5877 5877 5876 5875 5874 5874 5873 5872 5872 5872 5871 5871 5871 5871 5870 5870 5870 5870 5870 5870 5870 5870 5870 5870 5870 5871 5871 5871 5872 5872 5873 5873 5873
5886 5885 5884 5883 5883 5882 5881 5880 5880 5879 5878 5877 5876 5875 5874 5874 5873 5872 5872 5871 5871 5870 5870 5869 5869 5869 5869 5869 5869 5869 5868 5868 5868 5868 5868 5869 5869 5869 5870 5870 5870 5870 5871
5886 5885 5885 5884 5883 5882 5881 5881 5880 5879 5878 5877 5876 5875 5874 5873 5872 5872 5872 5871 5870 5869 5869 5868 5868 5868 5867 5867 5867 5867 5867 5867 5867 5867 5867 5867 5867 5867 5867 5867 5867 5867 5867
5887 5886 5885 5884 5883 5882 5881 5880 5880 5879 5878 5877 5876 5875 5874 5873 5872 5872 5871 5870 5869 5868 5868 5867 5867 5866 5866 5865 5865 5865 5865 5865 5865 5865 5865 5864 5864 5864 5865 5865 5865 5865 5865
5887 5886 5885 5884 5883 5882 5881 5880 5879 5878 5877 5876 5875 5874 5874 5873 5872 5871 5870 5869 5868 5867 5866 5866 5865 5864 5864 5864 5863 5863 5862 5862 5862 5862 5862 5862 5862 5862 5862 5862 5862 5862 5862
5887 5886 5884 5883 5882 5881 5881 5880 5879 5878 5877 5876 5875 5874 5873 5871 5870 5869 5868 5867 5866 5865 5865 5864 5864 5863 5862 5862 5861 5860 5860 5860 5859 5860 5860 5859 5859 5859 5859 5859 5859 5859 5859
5886 5885 5884 5883 5881 5880 5879 5878 5877 5877 5876 5875 5874 5873 5871 5870 5869 5868 5867 5865 5864 5864 5863 5862 5862 5861 5860 5860 5859 5858 5858 5857 5857 5857 5857 5856 5856 5856 5856 5855 5856 5856 5855
5885 5884 5883 5882 5880 5879 5878 5877 5876 5875 5875 5874 5873 5872 5870 5869 5867 5866 5865 5864 5862 5861 5860 5860 5859 5859 5858 5857 5856 5856 5855 5855 5854 5854 5853 5853 5853 5853 5852 5852 5852 5852 5852
5885 5883 5882 5881 5879 5878 5877 5876 5875 5874 5873 5872 5871 5870 5869 5867 5866 5865 5863 5862 5861 5860 5858 5857 5857 5856 5855 5854 5853 5853 5852 5851 5851 5851 5850 5850 5849 5849 5849 5848 5848 5848 5848
5883 5882 5880 5879 5878 5877 5876 5875 5874 5873 5872 5870 5870 5868 5867 5866 5864 5863 5861 5860 5858 5857 5856 5855 5854 5853 5852 5851 5850 5849 5849 5848 5848 5847 5847 5846 5846 5845 5845 5845 5844 5844 5844
5881 5880 5878 5877 5876 5875 5874 5873 5872 5871 5870 5869 5867 5866 5865 5863 5862 5860 5859 5857 5856 5854 5853 5852 5851 5850 5849 5848 5847 5846 5845 5844 5844 5844 5843 5842 5842 5841 5841 5841 5840 5839 5839
5879 5878 5877 5876 5874 5873 5872 5871 5870 5869 5868 5867 5865 5863 5862 5861 5859 5857 5856 5854 5853 5851 5850 5849 5847 5847 5846 5845 5844 5843 5842 5841 5840 5840 5839 5839 5838 5837 5837 5836 5835 5834 5834